Temp
15 14 14 15 15 16 16 15 15 15 15 15 15 15 15 15 16 16 17 17 17 16 15 15 15 15 15 15 15 15 15 15 15 15 16 16 16 15 15 15 15 15 15
14 14 14 14 15 15 15 15 15 15 15 15 15 15 15 15 16 16 16 16 16 16 15 15 15 15 15 15 15 14 15 15 15 15 15 15 15 14 15 15 15 15 15
14 15 15 15 14 14 15 14 14 15 15 15 15 15 15 15 15 15 15 15 15 16 15 14 14 15 15 14 14 15 15 15 15 15 15 15 14 14 14 15 14 15 14
13 15 15 14 15 14 14 14 14 14 14 14 14 14 14 15 15 15 15 15 15 15 15 15 15 14 15 14 14 14 15 15 15 15 14 14 14 14 14 14 14 14 14
13 14 14 14 14 14 14 14 14 14 14 14 14 14 14 14 14 14 15 15 14 14 14 15 15 14 14 15 14 14 15 15 15 15 14 14 14 14 14 14 14 14 14
14 14 14 14 14 14 14 14 14 15 14 14 14 14 14 14 14 14 14 14 14 14 14 14 14 14 14 14 14 14 15 15 15 14 14 13 14 14 14 14 14 14 14
14 14 15 14 14 13 14 14 13 13 14 14 15 14 14 14 13 13 14 14 13 14 14 14 14 14 14 14 14 14 15 15 14 14 14 14 14 14 13 14 14 14 14
13 13 13 13 14 14 13 13 13 13 13 13 13 13 14 14 13 13 13 13 14 13 14 14 14 14 14 14 14 14 15 14 14 14 13 14 14 13 13 13 14 14 14
13 13 13 13 13 12 13 13 13 13 12 12 12 12 13 13 13 14 13 13 14 13 13 14 14 14 14 14 14 14 14 14 14 13 13 13 13 13 13 13 13 13 13
12 12 12 12 12 12 12 12 12 12 12 12 12 12 12 12 12 12 13 13 13 13 13 13 13 13 14 14 14 14 13 13 13 13 13 13 13 13 13 13 13 12 13
11 12 12 12 11 12 11 12 11 11 11 12 12 12 12 12 12 11 11 12 13 13 13 13 13 13 13 13 13 13 13 13 13 13 13 13 12 12 12 12 12 12 12
11 11 11 11 11 11 11 11 11 11 11 11 11 11 12 12 12 12 12 12 12 12 13 13 13 13 13 12 13 13 13 14 13 13 13 13 12 12 12 12 12 13 12
9 10 10 10 10 10 10 10 10 10 10 10 10 10 11 11 11 11 12 11 11 11 11 11 12 12 12 12 12 12 13 13 13 12 12 12 13 12 12 12 12 12 12
8 8 10 10 10 10 10 10 9 9 9 9 9 10 10 10 10 11 11 10 10 11 11 10 11 11 11 12 11 12 12 12 12 12 12 12 13 13 12 12 12 12 12
7 8 9 9 10 10 9 9 9 9 9 9 9 9 9 9 10 10 10 9 9 10 10 10 10 11 11 11 11 11 12 11 12 11 11 12 12 12 12 12 12 12 12
7 7 8 8 8 9 9 8 8 8 8 8 8 8 8 8 8 9 9 9 8 9 9 8 8 9 10 10 10 11 11 12 11 11 11 10 11 11 12 11 11 11 12
6 6 7 8 8 8 8 7 7 7 7 7 7 7 7 8 8 8 8 8 9 9 9 8 8 8 8 9 10 10 11 11 11 10 11 11 10 11 12 11 11 11 11
5 6 7 7 7 7 7 7 6 6 6 6 5 6 6 6 6 7 7 8 8 8 8 7 7 8 8 9 10 10 9 10 10 10 12 12 11 11 11 10 11 11 11
5 6 7 6 6 6 6 6 6 6 5 5 5 5 5 5 6 6 6 6 7 8 8 7 8 7 8 8 8 9 9 10 9 10 9 10 11 11 11 11 11 11 11
6 5 5 5 5 6 5 5 4 4 5 5 4 4 4 4 5 5 5 5 6 6 7 7 7 7 7 7 8 8 9 9 10 10 10 11 10 10 10 11 11 11 11
4 5 5 5 4 4 4 4 4 4 4 4 4 4 4 4 4 4 4 4 5 5 5 6 7 7 7 6 6 8 8 8 8 9 9 10 10 10 10 10 10 11 11
4 4 4 4 3 3 3 3 3 3 3 3 3 3 4 4 4 4 4 4 4 4 5 5 5 6 6 5 6 6 7 8 9 9 9 10 9 9 10 10 10 11 10
3 3 3 3 3 2 2 2 2 2 2 2 2 3 3 3 3 3 3 3 3 3 4 4 4 4 5 6 5 5 7 8 9 9 9 9 9 10 10 11 11 11 11
3 3 3 3 2 2 1 1 1 1 1 1 1 1 1 1 2 2 2 1 1 2 2 2 2 2 3 4 4 5 5 6 7 8 8 9 9 8 10 9 10 10 10
3 3 3 2 2 1 1 0 0 0 -0 -0 0 1 0 -0 -1 0 1 0 -0 0 1 1 1 0 1 3 1 3 6 6 6 7 7 8 8 8 9 9 9 10 10
2 2 2 1 1 1 0 -0 -1 -1 -1 -1 -1 -2 -1 -2 -2 -2 -1 -1 -1 -1 -0 -0 -0 -0 1 1 2 2 3 4 5 6 6 7 8 8 9 9 9 9 10
Height
1546 1544 1544 1542 1541 1541 1541 1540 1540 1540 1540 1540 1540 1540 1540 1540 1539 1539 1539 1539 1538 1537 1537 1537 1538 1537 1537 1537 1538 1538 1537 1537 1537 1538 1538 1538 1539 1540 1540 1541 1541 1541 1542
1546 1545 1543 1542 1541 1541 1541 1540 1540 1540 1540 1540 1540 1540 1540 1540 1539 1539 1538 1538 1538 1537 1537 1537 1538 1538 1537 1537 1537 1538 1537 1537 1537 1538 1538 1538 1539 1540 1540 1540 1541 1541 1542
1545 1544 1543 1542 1541 1541 1541 1540 1540 1539 1539 1540 1540 1539 1539 1539 1539 1539 1538 1538 1539 1537 1537 1537 1537 1537 1537 1537 1538 1537 1537 1537 1538 1538 1539 1539 1539 1540 1540 1541 1541 1542 1543
1545 1544 1543 1542 1541 1541 1541 1540 1540 1540 1539 1539 1539 1539 1539 1538 1538 1538 1538 1538 1538 1538 1536 1536 1536 1535 1536 1536 1537 1536 1536 1537 1538 1538 1539 1539 1539 1540 1539 1540 1541 1542 1543
1545 1544 1544 1543 1542 1542 1541 1540 1540 1539 1540 1539 1538 1538 1537 1538 1537 1537 1537 1537 1537 1536 1536 1535 1535 1535 1535 1534 1535 1536 1536 1537 1538 1538 1539 1538 1539 1539 1540 1541 1542 1542 1544
1545 1544 1543 1542 1540 1540 1540 1540 1539 1538 1538 1539 1537 1537 1536 1536 1535 1536 1536 1536 1535 1535 1535 1534 1534 1534 1533 1534 1533 1534 1535 1536 1537 1538 1538 1539 1538 1539 1540 1541 1541 1543 1544
1546 1545 1544 1543 1541 1540 1539 1538 1537 1538 1537 1536 1536 1535 1535 1534 1533 1534 1534 1534 1534 1533 1533 1533 1532 1533 1532 1531 1531 1531 1533 1535 1536 1537 1537 1538 1537 1538 1539 1540 1541 1542 1543
1547 1546 1544 1542 1541 1540 1538 1537 1536 1536 1535 1535 1534 1534 1534 1533 1533 1531 1530 1530 1530 1531 1531 1531 1531 1531 1530 1529 1529 1530 1532 1533 1535 1535 1536 1537 1537 1537 1538 1539 1541 1542 1543
1547 1546 1544 1543 1541 1540 1539 1537 1535 1534 1533 1532 1531 1530 1530 1530 1529 1530 1528 1527 1525 1528 1528 1529 1530 1529 1528 1527 1527 1528 1530 1532 1533 1534 1536 1536 1537 1537 1538 1539 1540 1541 1541
1547 1546 1545 1543 1543 1541 1539 1537 1536 1535 1534 1532 1529 1527 1527 1525 1525 1526 1525 1526 1523 1524 1526 1525 1527 1527 1525 1524 1524 1525 1527 1530 1531 1532 1535 1534 1534 1536 1536 1536 1537 1538 1540
1547 1546 1545 1544 1542 1540 1539 1537 1536 1535 1533 1530 1527 1526 1525 1523 1522 1521 1521 1520 1521 1521 1520 1520 1522 1523 1522 1521 1521 1522 1524 1526 1530 1531 1532 1532 1532 1533 1534 1535 1534 1536 1537
1547 1547 1546 1545 1543 1542 1541 1539 1537 1535 1532 1530 1528 1524 1522 1521 1520 1518 1516 1515 1514 1516 1513 1516 1517 1518 1518 1518 1518 1518 1519 1522 1523 1528 1530 1529 1530 1530 1531 1532 1532 1533 1535
1549 1548 1547 1545 1545 1543 1542 1540 1538 1536 1533 1531 1528 1526 1522 1519 1517 1515 1514 1512 1511 1510 1509 1509 1511 1513 1514 1513 1514 1514 1515 1517 1518 1519 1523 1524 1525 1526 1528 1529 1530 1531 1533
1548 1547 1546 1545 1543 1541 1540 1539 1537 1535 1533 1530 1529 1526 1523 1520 1517 1514 1512 1510 1508 1507 1506 1507 1506 1504 1506 1505 1508 1508 1508 1510 1512 1516 1518 1519 1520 1521 1524 1525 1526 1528 1531
1547 1546 1545 1543 1541 1540 1539 1537 1535 1533 1532 1529 1527 1525 1522 1519 1517 1514 1511 1509 1507 1506 1504 1504 1501 1499 1499 1498 1489 1500 1501 1504 1507 1511 1512 1515 1517 1517 1519 1522 1523 1525 1528
1547 1545 1544 1542 1541 1539 1538 1536 1534 1533 1531 1529 1528 1524 1521 1519 1516 1514 1510 1508 1505 1504 1504 1502 1500 1497 1495 1493 1494 1493 1486 1495 1500 1504 1506 1508 1511 1512 1516 1519 1521 1523 1525
1547 1545 1544 1542 1540 1538 1536 1534 1533 1530 1529 1528 1526 1525 1521 1518 1515 1513 1510 1506 1503 1502 1500 1500 1497 1496 1494 1492 1491 1488 1484 1487 1493 1498 1501 1504 1508 1508 1511 1514 1517 1519 1522
1548 1546 1544 1542 1540 1539 1537 1535 1533 1531 1528 1526 1524 1522 1521 1518 1515 1512 1508 1506 1501 1498 1496 1496 1496 1493 1492 1490 1489 1491 1489 1487 1491 1495 1494 1500 1504 1508 1508 1506 1513 1516 1519
1548 1546 1544 1543 1541 1539 1538 1536 1533 1530 1527 1525 1523 1521 1519 1516 1514 1511 1508 1504 1501 1497 1494 1491 1491 1491 1489 1488 1486 1485 1486 1487 1488 1491 1493 1494 1495 1502 1504 1507 1508 1511 1514
1548 1546 1544 1542 1539 1537 1534 1531 1528 1527 1525 1522 1519 1518 1516 1514 1511 1508 1506 1503 1499 1495 1492 1489 1488 1489 1488 1486 1484 1483 1484 1485 1488 1487 1488 1490 1491 1496 1499 1501 1503 1507 1509
1547 1545 1544 1541 1538 1535 1532 1529 1526 1522 1520 1519 1516 1514 1513 1511 1508 1504 1501 1498 1496 1493 1490 1487 1484 1483 1483 1484 1481 1480 1480 1482 1482 1483 1485 1486 1489 1490 1494 1496 1498 1500 1503
1547 1545 1542 1539 1536 1532 1530 1528 1524 1520 1518 1515 1513 1510 1508 1507 1504 1500 1497 1494 1491 1488 1486 1484 1481 1479 1478 1481 1480 1479 1476 1477 1476 1479 1480 1481 1484 1487 1489 1491 1493 1495 1498
1546 1543 1542 1539 1536 1534 1530 1527 1523 1519 1516 1512 1510 1506 1503 1501 1498 1495 1492 1490 1487 1484 1482 1480 1478 1477 1473 1474 1478 1477 1476 1474 1473 1472 1473 1476 1477 1480 1481 1484 1487 1489 1491
1545 1542 1540 1538 1535 1532 1529 1525 1521 1517 1511 1507 1505 1501 1498 1495 1492 1489 1487 1485 1482 1480 1477 1476 1476 1474 1471 1469 1470 1473 1473 1474 1473 1471 1471 1472 1472 1475 1475 1476 1479 1482 1486
1543 1540 1538 1536 1533 1530 1526 1522 1518 1513 1509 1503 1499 1496 1493 1489 1486 1483 1481 1479 1477 1475 1473 1472 1471 1470 1468 1466 1465 1466 1467 1468 1468 1468 1468 1469 1470 1471 1472 1472 1474 1477 1480
1540 1537 1535 1533 1530 1527 1523 1519 1514 1509 1504 1498 1493 1489 1487 1484 1480 1478 1475 1473 1471 1470 1467 1465 1464 1463 1463 1461 1461 1460 1462 1464 1464 1465 1464 1465 1466 1467 1469 1469 1471 1473 1475
Wind_Speed
6 9 12 11 10 10 9 7 6 5 5 5 5 5 5 5 5 4 4 5 4 2 3 4 4 3 4 3 3 5 6 6 6 6 7 6 6 7 9 9 8 9 11
11 10 11 10 9 9 8 8 7 7 6 6 6 6 6 6 5 5 5 4 3 2 2 4 5 4 5 4 4 4 4 5 5 5 4 4 5 7 9 10 8 8 11
9 7 8 8 7 8 9 8 7 7 7 7 7 6 6 6 6 6 6 5 4 3 4 4 5 7 7 5 6 6 6 6 6 4 2 1 4 6 9 9 9 11 11
8 7 9 9 9 8 9 8 9 9 8 7 7 8 8 8 8 8 7 7 6 5 4 6 6 6 6 6 9 8 7 7 6 5 5 4 6 6 9 9 10 12 12
8 9 9 10 13 11 10 10 10 10 10 9 9 8 9 10 10 11 10 9 8 7 6 6 7 9 7 7 7 8 7 7 6 8 6 7 12 8 11 14 17 17 16
12 12 11 11 12 12 14 13 12 12 12 11 11 11 11 11 11 11 11 12 10 10 9 8 8 9 10 9 9 10 8 7 7 6 7 7 10 10 13 15 12 12 11
13 14 13 14 13 12 12 13 12 13 13 13 13 13 13 13 12 13 13 12 12 12 12 13 11 12 13 12 10 9 10 9 9 6 5 5 10 13 14 13 10 8 6
13 14 13 13 12 12 13 13 12 11 12 14 15 14 15 15 14 12 12 13 13 14 14 15 14 13 14 13 11 11 11 10 10 5 3 5 4 9 14 11 9 8 8
14 13 13 13 12 13 12 11 11 11 10 10 14 18 20 19 20 19 16 15 14 14 15 16 18 15 14 14 14 13 14 14 13 8 14 12 8 9 9 11 10 10 10
13 13 12 13 14 13 15 15 13 12 12 12 12 12 15 20 21 23 24 21 17 16 17 16 19 18 15 16 16 16 17 16 14 10 13 11 11 10 11 11 10 11 11
12 13 14 14 14 13 14 14 13 13 12 12 12 13 12 12 15 19 22 20 22 19 17 17 19 20 18 18 18 19 20 18 16 10 13 11 12 12 10 13 12 12 11
11 12 13 13 15 16 15 15 14 13 12 13 14 14 12 12 13 13 12 15 21 27 27 24 21 21 22 21 22 22 22 22 18 17 15 14 14 14 12 17 16 14 15
11 11 13 14 15 15 15 15 15 15 15 15 15 15 15 13 12 12 11 12 11 15 18 27 22 25 24 25 25 26 25 26 22 24 23 22 20 16 15 16 19 17 17
9 11 12 13 13 13 13 13 13 14 14 14 16 16 16 15 15 13 12 12 12 12 14 20 21 29 24 25 28 30 28 26 26 28 28 25 19 18 16 17 20 20 16
6 8 10 11 12 13 14 14 14 13 13 13 13 15 16 16 16 14 12 12 12 14 12 14 16 24 20 26 35 36 29 28 28 29 32 30 20 21 17 16 16 20 19
5 6 8 10 12 13 13 13 14 14 14 15 15 16 16 17 17 17 14 11 11 14 11 12 13 12 18 19 27 28 25 23 21 26 27 25 19 19 21 17 16 19 20
5 7 7 10 12 12 12 12 13 13 14 15 17 17 17 17 17 18 17 15 15 14 13 10 10 11 14 16 15 11 14 23 15 22 11 13 18 18 23 18 21 19 20
4 7 10 11 12 12 12 12 12 13 14 14 16 18 20 20 19 18 18 18 18 16 14 14 14 13 13 17 18 19 12 13 23 21 17 17 18 22 22 24 24 20 19
4 8 10 11 13 16 19 21 22 18 15 16 18 20 20 21 22 21 20 19 19 18 15 14 17 13 13 16 17 18 14 14 24 23 22 23 25 29 26 26 23 24 21
6 7 10 15 21 24 24 24 24 26 26 24 25 26 26 25 24 23 22 21 20 19 18 19 20 15 16 15 18 19 16 17 26 31 30 28 28 30 26 25 26 24 26
6 11 16 20 23 24 21 21 20 19 17 17 18 21 24 27 26 26 27 25 21 20 20 18 20 20 16 14 15 19 18 21 23 24 23 25 25 29 26 24 26 27 27
11 12 19 24 26 24 23 21 22 23 25 26 26 25 25 26 25 25 24 25 26 24 20 21 18 20 18 10 14 16 16 18 22 23 26 28 27 24 25 23 25 24 26
9 13 21 22 21 20 21 25 25 26 27 29 30 31 30 28 27 26 25 24 23 24 23 20 21 19 20 16 16 12 7 7 8 12 17 25 27 28 27 27 27 28 29
10 16 22 21 21 22 25 27 28 29 31 31 33 35 34 33 30 26 24 24 25 24 23 21 18 21 19 19 16 21 20 21 13 3 5 11 18 21 20 23 25 21 22
15 21 22 22 23 24 26 26 29 31 31 33 34 34 34 32 30 29 26 23 22 26 23 22 20 19 19 19 17 19 25 21 19 21 21 19 14 12 9 9 14 21 24
16 20 22 23 25 27 29 30 29 31 33 34 33 33 32 33 30 31 29 25 25 27 25 23 21 23 21 21 20 19 23 20 17 18 22 24 25 22 19 19 17 16 17
Wind_Direction
353 2 346 352 349 348 347 334 333 335 328 322 311 310 296 295 297 300 313 321 322 281 283 302 296 289 275 257 214 191 193 202 192 175 166 155 151 149 143 139 153 151 146
343 2 357 342 347 345 343 342 326 322 317 310 305 297 299 292 287 287 300 313 311 223 244 291 285 287 279 248 228 201 195 196 188 182 171 174 171 172 172 165 175 175 154
334 336 342 337 331 339 334 329 324 315 312 300 289 286 285 283 283 287 294 303 302 269 235 227 280 287 259 242 229 216 216 218 202 183 165 242 199 192 181 186 188 166 151
343 342 338 335 328 330 329 327 321 317 308 300 288 285 283 276 272 274 283 292 296 292 268 247 243 247 262 237 238 236 236 219 206 160 132 215 268 217 187 196 167 152 150
4 353 337 327 325 327 326 319 315 312 311 305 295 284 275 278 281 282 276 275 283 290 288 277 255 252 254 246 236 232 230 226 196 166 191 212 243 212 162 149 135 130 128
25 12 352 339 330 320 315 316 314 302 298 300 297 294 291 284 272 269 276 280 283 284 280 276 269 259 255 248 243 239 237 212 183 176 215 224 237 196 176 166 165 155 155
12 5 2 4 0 347 328 318 313 305 299 290 290 294 293 288 284 286 279 273 277 279 281 279 276 265 253 247 243 231 208 197 173 177 227 231 229 207 188 181 175 171 180
10 10 5 3 357 357 357 356 343 315 301 291 290 288 285 285 288 287 282 277 275 273 274 278 276 271 255 241 232 221 205 197 174 209 217 217 239 192 183 187 188 213 223
15 8 5 2 4 356 356 354 353 354 336 308 280 274 274 273 279 285 283 279 264 268 267 275 277 267 253 240 227 217 211 198 180 184 217 233 238 225 224 222 234 240 238
10 8 10 8 7 7 359 358 352 350 344 337 329 310 295 276 275 270 270 277 281 277 270 266 269 263 251 240 229 220 212 205 193 182 233 214 240 240 259 243 243 240 242
3 13 12 14 14 12 9 6 359 354 344 331 323 320 320 315 294 278 277 275 276 275 269 267 264 262 254 244 235 227 216 208 203 200 255 244 255 267 241 239 238 238 214
10 12 12 12 14 13 11 9 6 4 359 349 344 343 331 323 312 306 307 297 274 268 269 263 258 257 255 246 237 229 220 225 218 211 227 250 258 272 256 239 230 222 205
11 12 13 14 13 12 10 7 5 4 2 357 353 358 351 349 343 329 316 309 300 277 273 253 253 253 251 249 240 232 229 225 230 206 215 220 233 253 261 260 235 219 208
14 8 8 10 6 5 4 359 359 355 357 355 349 350 352 351 352 351 346 338 323 300 292 275 257 248 243 248 247 240 233 230 223 220 221 218 243 249 256 263 232 219 217
16 0 4 358 357 357 355 352 349 347 342 343 338 337 344 342 341 342 343 342 336 324 306 300 291 267 256 249 244 236 236 229 225 230 228 238 245 250 240 258 233 219 221
347 358 359 352 356 353 352 352 349 348 347 344 340 337 339 337 337 336 333 334 322 321 320 324 331 311 280 289 261 262 219 234 228 237 234 230 248 245 240 246 242 227 222
350 344 359 349 349 347 350 351 351 353 352 351 350 345 341 337 338 337 330 325 318 323 318 307 305 291 288 290 292 302 241 247 243 229 214 232 250 236 232 248 245 229 231
358 338 340 347 347 349 349 350 352 355 355 356 355 351 346 342 339 337 335 327 323 322 320 314 298 280 287 282 279 281 284 252 220 207 194 220 246 247 240 240 244 235 229
327 331 340 353 358 356 349 339 333 334 341 348 347 346 346 344 338 331 329 330 326 322 317 302 300 299 284 282 296 287 284 245 215 206 243 263 261 246 242 243 245 241 239
319 331 348 345 337 333 327 318 310 300 295 305 318 326 335 335 333 329 329 322 317 318 315 307 303 287 269 277 277 282 274 252 236 249 261 261 238 244 235 248 240 241 241
309 337 346 344 339 333 332 330 330 333 332 325 324 319 310 322 326 326 324 324 322 316 310 310 308 300 288 279 286 279 272 262 257 253 252 253 246 248 246 247 244 243 243
329 341 341 339 337 336 333 335 331 328 327 325 323 320 318 316 316 316 315 314 315 314 309 307 305 303 289 269 281 285 287 281 252 262 249 257 250 244 238 245 247 245 241
331 326 338 337 334 331 326 326 323 319 318 320 319 318 318 316 316 315 311 308 306 304 304 303 302 299 293 278 241 269 273 253 267 264 247 246 249 252 246 247 249 245 245
313 317 331 331 327 326 323 322 322 320 319 319 316 316 315 315 315 313 308 301 300 298 296 294 290 291 291 285 273 239 254 262 278 269 249 258 244 247 254 245 244 237 236
297 311 326 327 322 318 317 317 315 314 312 311 311 310 310 310 312 309 307 301 289 290 290 287 287 280 281 283 266 264 250 258 262 259 271 266 265 273 259 255 247 246 242
295 314 320 323 319 319 318 317 313 311 310 310 311 312 309 308 305 307 307 300 288 285 286 281 275 276 279 278 276 260 250 258 265 266 260 262 258 257 265 270 267 258 246